Regional Weather Roundup
Issued by NWS

Home | Current Version | Previous Version | Text Only | Print | Product List | Glossary Off
Versions: 1 2 3 4 5 6 7 8 9 10 11 12 13 14 15 16 17 18 19 20 21 22 23 24 25 26 27 28 29 30 31 32 33 34 35 36 37 38 39 40 41 42 43 44 45 46 47 48 49 50

406
ASUS43 KLMK 070602
RWRKY
KENTUCKY REGIONAL WEATHER ROUNDUP
NATIONAL WEATHER SERVICE LOUISVILLE KY
100 AM EST SUN FEB 07 2016

NOTE "FAIR" INDICATES FEW OR NO CLOUDS BELOW 12,000 FEET
WITH NO SIGNIFICANT WEATHER AND/OR OBSTRUCTIONS TO VISIBILITY.

KYZ001>023-026-027-061>063-070>075-070700-
WESTERN AND SOUTH CENTRAL KENTUCKY

CITY           SKY/WX    TMP DP  RH WIND       PRES   REMARKS
PADUCAH        CLEAR     40  22  48 SW6       30.24F
HENDERSON      PTCLDY    36  23  60 SW8       30.23S WCI  29
OWENSBORO      CLEAR     37  25  62 SW5       30.24F WCI  33
HOPKINSVILLE   CLEAR     34  22  61 SW3       30.25F
BOWLING GREEN  PTCLDY    32  23  69 CALM      30.26F
GLASGOW        NOT AVBL
$$

KYZ024-025-028>034-038-045-046-053-070700-
NORTH CENTRAL KENTUCKY

CITY           SKY/WX    TMP DP  RH WIND       PRES   REMARKS
LOUISVILLE/SDF PTCLDY    36  24  62 CALM      30.22F
LOUISVILLE/LOU PTCLDY    33  26  75 S3        30.23F
FORT KNOX      CLEAR     32  22  66 SW5       30.21F WCI  27
$$

KYZ035>037-039>044-047>052-055>060-089>105-070700-
NORTHEAST KENTUCKY

CITY           SKY/WX    TMP DP  RH WIND       PRES   REMARKS
LEXINGTON      PTCLDY    29  22  75 S8        30.22F WCI  21
COVINGTON      CLEAR     34  23  64 S8        30.20F WCI  27
FRANKFORT      PTCLDY    27  21  78 CALM      30.21F
$$

KYZ054-064>069-076>088-106>120-070700-
SOUTHEAST KENTUCKY

CITY           SKY/WX    TMP DP  RH WIND       PRES   REMARKS
JACKSON        CLEAR     36  20  52 CALM      30.22F
LONDON         CLEAR     29  23  78 CALM      30.23F
SOMERSET       NOT AVBL
MIDDLESBORO    NOT AVBL
MONTICELLO     CLEAR     24  21  88 W10       30.26F WCI  14
$$





USA.gov is the U.S. government's official web portal to all federal, state and local government web resources and services.